Location: Borotín
(49.5055°N, 14.6142°E)
Time: 11:13:53
(UTC+00:00)

Cosmos 1943 Rocket - Pass Details

Date: 27 May 2022
Orbit: 810 x 845 km, 71.0° (Epoch: 26 June)

Event Time Altitude Azimuth Distance (km) Brightness Sun altitude
Rises 01:06:13 0° 327° (NNW) 3,414 5.7 -13.8°
Reaches altitude 10° 01:08:44 10° 322° (NW) 2,476 4.9 -13.6°
Maximum altitude 01:14:10 47° 250° (WSW) 1,107 2.5 -13.1°
Enters shadow 01:19:18 11° 179° (S) 2,370 4.0 -12.6°
